DateTime,DeltaTime,Roll,TargetAngle,Position,Power
2022-05-25 10:46:35.978,0,1.07,3.67,-5,-38.85
2022-05-25 10:46:36.092,0.114000588655472,1.34,2.43,0,-25.08
2022-05-25 10:46:36.207,0.228996947407722,1.06,-1,2,13.49
2022-05-25 10:46:36.322,0.344003364443779,0.99,-0.38,2,9.46
2022-05-25 10:46:36.437,0.45899972319603,0.47,-4.18,2,26.86
2022-05-25 10:46:36.552,0.57399608194828,-0.62,-10.79,0,55.52
2022-05-25 10:46:36.667,0.689002498984337,-0.85,-7.82,-5,22.34
2022-05-25 10:46:36.781,0.803003087639809,-0.0600000000000001,-0.51,-8,-32
2022-05-25 10:46:36.896,0.917999446392059,0.34,-0.65,-6,-30.57
2022-05-25 10:46:37.010,1.03200003504753,0.52,-1.03,-3,-15.59
2022-05-25 10:46:37.124,1.146000623703,0.79,0.43,0,-11.46
2022-05-25 10:46:37.235,1.25699378550053,1.5,4.91,0,-21.2
2022-05-25 10:46:37.350,1.37200020253658,1.76,3.95,2,-14.88
2022-05-25 10:46:37.465,1.48699656128883,0.88,-4.31,2,34.81
2022-05-25 10:46:37.580,1.60200297832489,-0.31,-10.02,0,50.48
2022-05-25 10:46:37.694,1.71599350869656,-0.7,-7.98,-5,24.19
2022-05-25 10:46:37.809,1.83099992573261,-0.47,-4.42,-8,-12.64
2022-05-25 10:46:37.924,1.94599628448486,-0.33,-4.33,-10,-16.94
2022-05-25 10:46:38.037,2.05900110304356,-0.03,-2.5,-6,-32.38
2022-05-25 10:46:38.152,2.17399746179581,0.5,0.45,-4,-22.77
2022-05-25 10:46:38.267,2.28899382054806,1,2.22,-3,-23.59
2022-05-25 10:46:38.384,2.40600183606148,1.03,0.23,0,-9.49
2022-05-25 10:46:38.496,2.51800082623959,0.33,-5.58,1,30.35
2022-05-25 10:46:38.611,2.63299718499184,-0.48,-9,-1,41.44
2022-05-25 10:46:38.725,2.74699777364731,-0.83,-8.28,-5,22.95
2022-05-25 10:46:38.841,2.86299996078014,-0.93,-7.62,-7,3.87
2022-05-25 10:46:38.952,2.97400318086147,-0.98,-7.53,-8,-0.25
2022-05-25 10:46:39.066,3.08799371123314,-0.28,-1.68,-8,-31.72
2022-05-25 10:46:39.180,3.20199429988861,0.59,2.28,-5,-43.15
2022-05-25 10:46:39.295,3.31700071692467,0.72,-0.46,-2,-10.15
2022-05-25 10:46:39.410,3.43199707567692,0.72,-1.07,1,-0.07
2022-05-25 10:46:39.525,3.54700349271297,0.64,-1.69,0,13.22
2022-05-25 10:46:39.642,3.66400144994259,-0.17,-7.83,0,34.44
2022-05-25 10:46:39.755,3.77699621021748,-1.26,-13.15,-2,55.06
2022-05-25 10:46:39.869,3.89099679887295,-1.38,-9.32,-7,19.38
2022-05-25 10:46:39.983,4.00499738752842,-0.56,-2.18,-9,-33.03
2022-05-25 10:46:40.098,4.11999374628067,-0.05,-1.64,-8,-30.27
2022-05-25 10:46:40.212,4.23399433493614,0.12,-2.54,-5,-18.12
2022-05-25 10:46:40.327,4.3490007519722,0.47,-0.39,-2,-16.87
2022-05-25 10:46:40.442,4.46399711072445,1.2,3.93,0,-24.97
2022-05-25 10:46:40.557,4.5789934694767,1.32,1.72,1,-2.74
2022-05-25 10:46:40.667,4.68900091946125,0.4,-6.23,1,36.35
2022-05-25 10:46:40.782,4.8039972782135,-0.79,-11.82,-1,53.26
2022-05-25 10:46:40.898,4.91999946534634,-0.96,-8.04,-5,18.4
2022-05-25 10:46:41.012,5.03400005400181,-0.45,-3.09,-8,-18.13
2022-05-25 10:46:41.127,5.14899641275406,-0.03,-1.95,-6,-27.31
2022-05-25 10:46:41.241,5.26299700140953,0.3,-1.14,-7,-16.47
2022-05-25 10:46:41.356,5.37800341844559,1.06,3.57,-4,-47.01
2022-05-25 10:46:41.471,5.49299977719784,1.39,2.84,0,-20.38
2022-05-25 10:46:41.585,5.60700036585331,1.04,-1.36,2,15.18
2022-05-25 10:46:41.700,5.72199672460556,0.46,-4.52,2,30.32
2022-05-25 10:46:41.815,5.83700314164162,-0.17,-7.11,0,37.1
2022-05-25 10:46:41.929,5.95099367201328,-0.41,-6.23,-4,20.14
2022-05-25 10:46:42.044,6.06600008904934,-0.46,-5.66,-6,1.66
2022-05-25 10:46:42.158,6.18000067770481,-0.27,-3.86,-6,-11.23
2022-05-25 10:46:42.269,6.29099383950233,0.43,0.93,-6,-30.4
2022-05-25 10:46:42.383,6.40499442815781,1.45,6.16,-5,-50.95
2022-05-25 10:46:42.499,6.52099661529064,1.75,4.1,0,-29.56
2022-05-25 10:46:42.613,6.63499720394611,1.34,-0.57,4,13.98
2022-05-25 10:46:42.727,6.74899779260159,0.71,-3.82,4,37.6
2022-05-25 10:46:42.842,6.86399415135384,0.29,-4.47,3,32.04
2022-05-25 10:46:42.957,6.97900056838989,0.02,-4.8,0,28.62
2022-05-25 10:46:43.072,7.09399692714214,-0.11,-4.65,-4,14.45
2022-05-25 10:46:43.186,7.20799751579762,0.01,-3.11,-6,-8.67
2022-05-25 10:46:43.301,7.32299387454987,0.52,0.46,-5,-29.37
2022-05-25 10:46:43.415,7.43699446320534,1.28,4.34,-4,-37.09
2022-05-25 10:46:43.531,7.55299665033817,1.63,3.9,0,-26.96
2022-05-25 10:46:43.646,7.66800306737423,1.69,2.78,3,-3.92
2022-05-25 10:46:43.759,7.78099782764912,1.64,2.18,4,7.08
2022-05-25 10:46:43.870,7.89200104773045,1.08,-2.18,3,29.28
2022-05-25 10:46:43.985,8.0069974064827,0.01,-8.33,3,48.56
2022-05-25 10:46:44.099,8.12099799513817,-0.35,-6.57,-3,33.01
2022-05-25 10:46:44.214,8.23599435389042,0.19,-0.64,-5,-23.49
2022-05-25 10:46:44.329,8.35100077092648,0.75,1.54,-6,-28.95
2022-05-25 10:46:44.443,8.46500135958195,0.92,0.46,-3,-23.69
2022-05-25 10:46:44.558,8.5799977183342,1.14,1.49,0,-14.51
2022-05-25 10:46:44.673,8.69499407708645,1.84,6.16,2,-25.85
2022-05-25 10:46:44.788,8.81000049412251,2.19,5.9,4,-12.96
2022-05-25 10:46:44.902,8.92400108277798,1.52,-0.98,5,28.16
2022-05-25 10:46:45.017,9.03899744153023,0.4,-7.15,3,52.84
2022-05-25 10:46:45.132,9.15399380028248,-0.0800000000000001,-6.11,-2,29.65
2022-05-25 10:46:45.246,9.26799438893795,-0.0700000000000001,-3.93,-5,-1.46
2022-05-25 10:46:45.362,9.38399657607079,0.03,-3.1,-7,-11.05
2022-05-25 10:46:45.477,9.49900299310684,0.5,0.2,-8,-32.67
2022-05-25 10:46:45.587,9.60900038480759,1.29,4.53,-4,-53.07
2022-05-25 10:46:45.702,9.72399674355984,1.38,1.76,2,-12.4
2022-05-25 10:46:45.816,9.83799733221531,0.97,-1.85,3,26.29
2022-05-25 10:46:45.931,9.95299369096756,0.99,0,2,9.77
2022-05-25 10:46:46.045,10.066994279623,0.64,-2.88,1,20.6
2022-05-25 10:46:46.160,10.1820006966591,-0.53,-10.77,1,53.01
2022-05-25 10:46:46.275,10.2969970554113,-1.06,-9.91,-4,39.15
2022-05-25 10:46:46.389,10.4109976440668,-0.34,-1.86,-8,-24.01
2022-05-25 10:46:46.504,10.5259940028191,0.53,2.12,-7,-47
2022-05-25 10:46:46.619,10.6410004198551,0.8,0.42,-3,-23.85
2022-05-25 10:46:46.733,10.7550010085106,0.76,-1.05,0,-0.72
2022-05-25 10:46:46.851,10.872994735837,1.18,2.49,1,-10.77
2022-05-25 10:46:46.962,10.9839979559183,1.77,5.43,1,-19.98
2022-05-25 10:46:47.078,11.1000001430511,1.45,0.27,1,7.98
2022-05-25 10:46:47.187,11.2090017646551,-0.0600000000000001,-10.5,0,55.17
2022-05-25 10:46:47.302,11.3239981234074,-1.16,-12.81,-4,49.03
2022-05-25 10:46:47.417,11.4389944821596,-0.72,-4.42,-7,-14.69
2022-05-25 10:46:47.531,11.5529950708151,0.17,0.77,-8,-39.4
2022-05-25 10:46:47.647,11.6689972579479,0.56,0.12,-6,-31.09
2022-05-25 10:46:47.761,11.7829978466034,0.59,-1.38,-3,-13.87
2022-05-25 10:46:47.876,11.8979942053556,1.09,2.51,0,-23.37
2022-05-25 10:46:47.990,12.0119947940111,1.28,1.87,1,-4.45
2022-05-25 10:46:48.106,12.127996981144,0.75,-3.22,1,21.05
2022-05-25 10:46:48.219,12.2410017997026,-0.2,-8.63,0,40.5
2022-05-25 10:46:48.336,12.3579997569323,-0.76,-8.93,-3,30.82
2022-05-25 10:46:48.450,12.4720003455877,-0.78,-6.68,-5,6.28
2022-05-25 10:46:48.564,12.5860009342432,-0.54,-4.64,-7,-6.72
2022-05-25 10:46:48.679,12.7009972929955,0.28,0.89,-6,-39.12
2022-05-25 10:46:48.794,12.8159936517477,1.25,5.19,-5,-46.51
2022-05-25 10:46:48.904,12.9260011017323,1.28,1.16,1,-16.16
2022-05-25 10:46:49.019,13.0409974604845,0.8,-2.83,3,26.67
2022-05-25 10:46:49.133,13.15499804914,0.73,-1.29,2,16.22
2022-05-25 10:46:49.248,13.2699944078922,0.49,-2.94,1,19.26
2022-05-25 10:46:49.363,13.3850008249283,-0.35,-8.64,-2,42.39
2022-05-25 10:46:49.477,13.4990014135838,-0.93,-9.72,-4,27.48
2022-05-25 10:46:49.594,13.6159993708134,-0.65,-4.88,-7,-3.51
2022-05-25 10:46:49.707,13.7289941310883,0.23,1.02,-7,-39
2022-05-25 10:46:49.821,13.8429947197437,0.78,1.59,-6,-30.91
2022-05-25 10:46:49.936,13.9580011367798,0.89,0.1,-2,-18.47
2022-05-25 10:46:50.050,14.0720017254353,1.12,1.42,0,-8.9
2022-05-25 10:46:50.165,14.1869980841875,1.18,0.97,2,-0.46
2022-05-25 10:46:50.280,14.3019944429398,0.44,-5.36,0,37.92
2022-05-25 10:46:50.395,14.4170008599758,-0.6,-10.42,-2,42.98
2022-05-25 10:46:50.505,14.5269982516766,-1,-9.17,-5,23.66
2022-05-25 10:46:50.620,14.6419946104288,-0.72,-5.11,-8,-6.74
2022-05-25 10:46:50.735,14.7570010274649,-0.32,-3.15,-8,-22.28
2022-05-25 10:46:50.849,14.8710016161203,0.35,0.57,-7,-34.83
2022-05-25 10:46:50.964,14.9859979748726,1.04,3.13,-4,-38.56
2022-05-25 10:46:51.079,15.1009943336248,1.05,0.2,1,-7.79
2022-05-25 10:46:51.193,15.2149949222803,0.81,-1.72,2,18.71
2022-05-25 10:46:51.308,15.3300013393164,0.36,-4.32,1,27.87
2022-05-25 10:46:51.422,15.4440019279718,-0.29,-7.63,-2,35.26
2022-05-25 10:46:51.537,15.5589982867241,-0.79,-8.77,-4,23.76
2022-05-25 10:46:51.652,15.6739946454763,-0.95,-7.9,-7,12.45
2022-05-25 10:46:51.767,15.7890010625124,-0.71,-5.27,-7,-11.61
2022-05-25 10:46:51.882,15.9039974212646,0.19,0.94,-7,-35.46
2022-05-25 10:46:51.997,16.0189937800169,0.86,2.41,-4,-35.4
2022-05-25 10:46:52.110,16.1319985985756,1.11,1.47,0,-14.6
2022-05-25 10:46:52.222,16.2439975887537,1.23,1.38,2,0.17
2022-05-25 10:46:52.336,16.3579981774092,0.89,-1.87,1,20.97
2022-05-25 10:46:52.451,16.4729945361614,-0.02,-7.76,0,38.92
2022-05-25 10:46:52.565,16.5869951248169,-0.76,-9.76,-4,38.29
2022-05-25 10:46:52.680,16.702001541853,-0.91,-7.68,-6,7.46
2022-05-25 10:46:52.795,16.8169979006052,-0.69,-5.32,-8,-6.08
2022-05-25 10:46:52.910,16.9319942593575,-0.17,-2.03,-8,-26.88
2022-05-25 10:46:53.024,17.0459948480129,0.77,3.27,-6,-46.96
2022-05-25 10:46:53.141,17.1630028635263,1.22,2.79,-2,-29.22
2022-05-25 10:46:53.254,17.2759976238012,0.79,-2.66,1,14.06
2022-05-25 10:46:53.368,17.3899982124567,0.37,-4.13,0,24.05
2022-05-25 10:46:53.483,17.504994571209,-0.0600000000000001,-5.83,0,22.14
2022-05-25 10:46:53.597,17.6189951598644,-0.73,-9.29,-4,39.11
2022-05-25 10:46:53.712,17.7340015769005,-1.17,-10.01,-6,18.97
2022-05-25 10:46:53.823,17.844994738698,-1.17,-8.04,-8,4.01
2022-05-25 10:46:53.938,17.9600011557341,-0.53,-2.84,-7,-26.63
2022-05-25 10:46:54.052,18.0740017443895,0.34,1.39,-6,-33.86
2022-05-25 10:46:54.167,18.1889981031418,0.81,1.36,-4,-25.19
2022-05-25 10:46:54.281,18.3029986917973,0.97,0.6,0,-13.43
2022-05-25 10:46:54.397,18.4190008789301,1.04,0.44,1,3.36
2022-05-25 10:46:54.511,18.5330014675856,0.38,-5.16,1,30.86
2022-05-25 10:46:54.627,18.6489935964346,-0.72,-11.18,-2,52.88
2022-05-25 10:46:54.741,18.7629941850901,-1.12,-9.58,-6,21.96
2022-05-25 10:46:54.855,18.8769947737455,-0.79,-5.19,-8,-13.29
2022-05-25 10:46:54.971,18.9929969608784,-0.5,-4.26,-8,-17.02
2022-05-25 10:46:55.084,19.1060017794371,-0.0900000000000001,-2.24,-7,-23.66
2022-05-25 10:46:55.199,19.2209981381893,0.62,1.66,-6,-36.01
2022-05-25 10:46:55.314,19.3359944969416,1.26,3.8,-2,-38.71
2022-05-25 10:46:55.427,19.4489993155003,0.8,-2.75,0,14.66
2022-05-25 10:46:55.539,19.5609983056784,-0.15,-8.44,1,39.38
2022-05-25 10:46:55.656,19.677996262908,-0.82,-9.64,-3,41.07
2022-05-25 10:46:55.768,19.7899952530861,-0.97,-7.98,-5,10.82
2022-05-25 10:46:55.883,19.9050016701221,-1.07,-8.08,-7,9.23
2022-05-25 10:46:55.997,20.0190022587776,-1.28,-9.32,-8,8.17
2022-05-25 10:46:56.113,20.1349943876266,-0.77,-4.33,-7,-20.6
2022-05-25 10:46:56.227,20.2489949762821,0.5,3.69,-6,-48.17
2022-05-25 10:46:56.342,20.3640013933182,1.15,3.39,-3,-32.96
2022-05-25 10:46:56.457,20.4789977520704,0.92,-1.31,1,3.02
2022-05-25 10:46:56.571,20.5929983407259,0.61,-2.8,3,20.21
2022-05-25 10:46:56.686,20.7079946994781,0,-6.33,1,41.03
2022-05-25 10:46:56.800,20.8219952881336,-0.53,-7.96,-4,32.78
2022-05-25 10:46:56.915,20.9370017051697,-0.91,-8.74,-5,12.95
2022-05-25 10:46:57.030,21.0519980639219,-0.93,-7.26,-8,6.55
2022-05-25 10:46:57.140,21.1619954556227,-0.57,-4.25,-8,-20.1
2022-05-25 10:46:57.256,21.2779976427555,0.23,0.68,-7,-37.22
2022-05-25 10:46:57.370,21.391998231411,1.03,3.57,-4,-41
2022-05-25 10:46:57.485,21.5069945901632,1.32,2.47,0,-18.97
2022-05-25 10:46:57.599,21.6209951788187,0.86,-2.56,3,20.26
2022-05-25 10:46:57.714,21.7360015958548,0.25,-5.39,3,37.82
2022-05-25 10:46:57.828,21.8500021845102,-0.28,-7.06,0,39.28
2022-05-25 10:46:57.943,21.9649985432625,-0.55,-6.91,-4,22.23
2022-05-25 10:46:58.057,22.078999131918,-0.66,-6.65,-7,5.7
2022-05-25 10:46:58.172,22.1939954906702,-0.55,-5.25,-8,-10.48
2022-05-25 10:46:58.287,22.3090019077063,0.17,0.05,-8,-36.38
2022-05-25 10:46:58.401,22.4230024963617,1.08,4.31,-5,-50.18
2022-05-25 10:46:58.517,22.5389946252108,1.06,0.13,1,-9.51
2022-05-25 10:46:58.631,22.6529952138662,0.96,-0.57,2,14.11
2022-05-25 10:46:58.742,22.7639984339476,0.84,-1.14,2,13.35
2022-05-25 10:46:58.857,22.8789947926998,-0.1,-8.19,3,46.82
2022-05-25 10:46:58.971,22.9929953813553,-0.97,-11.09,-2,57.11
2022-05-25 10:46:59.086,23.1080017983913,-0.64,-4.58,-7,-5.54
2022-05-25 10:46:59.200,23.2220023870468,-0.17,-2.3,-7,-26.67
2022-05-25 10:46:59.315,23.3369987457991,0.05,-2.51,-6,-16.48
2022-05-25 10:46:59.430,23.4519951045513,0.51,0.14,-5,-25.45
2022-05-25 10:46:59.545,23.5670015215874,1.15,3.35,-2,-34.9
2022-05-25 10:46:59.659,23.6810021102428,1.34,2.09,1,-11.43
2022-05-25 10:46:59.774,23.7959984689951,1.09,-0.72,2,11.69
2022-05-25 10:46:59.889,23.9109948277473,0.3,-6.04,2,35.83
2022-05-25 10:47:00.003,24.0249954164028,-0.48,-8.91,0,42.6
2022-05-25 10:47:00.118,24.1400018334389,-0.7,-7.22,-5,21.38
2022-05-25 10:47:00.232,24.2540024220943,-0.54,-5.02,-7,-9.11
2022-05-25 10:47:00.347,24.3689987808466,-0.44,-4.9,-7,-10.3
2022-05-25 10:47:00.457,24.4789961725473,0.44,1.79,-7,-41.18
2022-05-25 10:47:00.572,24.5940025895834,1.21,4.16,-4,-45.04
2022-05-25 10:47:00.687,24.7089989483356,1.04,-0.64,0,-2.17
2022-05-25 10:47:00.802,24.8239953070879,0.65,-3,2,19.1
2022-05-25 10:47:00.916,24.9379958957434,0.52,-2.36,3,17.87
2022-05-25 10:47:01.031,25.0530023127794,0.16,-4.64,0,32.85
2022-05-25 10:47:01.147,25.1689944416285,-0.47,-8.19,-3,32.03
2022-05-25 10:47:01.260,25.2819992601871,-0.77,-7.89,-5,15.51
2022-05-25 10:47:01.376,25.39800144732,-0.5,-4.39,-6,-7.21
2022-05-25 10:47:01.490,25.5120020359755,0.15,-0.29,-7,-25.57
2022-05-25 10:47:01.606,25.6279941648245,0.78,1.91,-5,-35.4
2022-05-25 10:47:01.719,25.7409989833832,0.86,-0.17,-2,-11.59
2022-05-25 10:47:01.835,25.857001170516,1.1,1.45,0,-10.49
2022-05-25 10:47:01.949,25.9710017591715,1.11,0.42,1,2.55
2022-05-25 10:47:02.063,26.085002347827,0.35,-5.75,0,34.4
2022-05-25 10:47:02.174,26.1959955096245,-0.51,-9.35,-2,38.59
2022-05-25 10:47:02.289,26.3110019266605,-0.69,-7.04,-6,14.5
2022-05-25 10:47:02.403,26.425002515316,-0.63,-5.77,-7,-5.76
2022-05-25 10:47:02.518,26.5399988740683,-0.6,-5.81,-8,-3.68
2022-05-25 10:47:02.635,26.6569968312979,-0.05,-1.44,-7,-29.37
2022-05-25 10:47:02.747,26.768995821476,0.79,2.92,-6,-39.74
2022-05-25 10:47:02.862,26.884002238512,0.86,-0.23,-3,-15.49
2022-05-25 10:47:02.977,26.9989985972643,0.33,-4.8,0,16.43
2022-05-25 10:47:03.091,27.1129991859198,-0.25,-7.16,1,33.46
2022-05-25 10:47:03.206,27.227995544672,-0.5,-6.62,-2,29.38
2022-05-25 10:47:03.321,27.3430019617081,-0.53,-5.8,-4,10.36
2022-05-25 10:47:03.435,27.4570025503635,-0.69,-6.93,-6,11.38
2022-05-25 10:47:03.550,27.5719989091158,-0.94,-8.32,-6,9.73
2022-05-25 10:47:03.665,27.686995267868,-0.51,-3.67,-5,-12.53
2022-05-25 10:47:03.780,27.8020016849041,0.38,1.6,-5,-27.99
2022-05-25 10:47:03.889,27.9110033065081,0.99,2.59,-4,-27.95
2022-05-25 10:47:04.005,28.0269954353571,1.01,0.12,0,-9.97
2022-05-25 10:47:04.121,28.1429976224899,0.76,-1.99,0,15.68
2022-05-25 10:47:04.234,28.2560024410486,0.22,-5.22,0,23.99
2022-05-25 10:47:04.348,28.3700030297041,-0.42,-8.04,-3,34.36
2022-05-25 10:47:04.463,28.4849993884563,-0.67,-7.29,-5,12.62
2022-05-25 10:47:04.578,28.5999957472086,-0.41,-4.11,-5,-8
2022-05-25 10:47:04.692,28.7139963358641,-0.12,-2.88,-6,-7.46
2022-05-25 10:47:04.807,28.8290027529001,0.4,0.08,-6,-25.83
2022-05-25 10:47:04.922,28.9439991116524,0.91,1.92,-5,-30.4
2022-05-25 10:47:05.037,29.0589954704046,1.12,1.34,-4,-20.79
2022-05-25 10:47:05.152,29.1740018874407,0.58,-3.9,0,7.76
2022-05-25 10:47:05.267,29.2889982461929,-0.0800000000000001,-6.9,0,34.57
2022-05-25 10:47:05.381,29.4029988348484,-0.39,-6.49,-2,23.99
2022-05-25 10:47:05.491,29.5129962265491,-0.12,-2.95,-4,-2.58
2022-05-25 10:47:05.608,29.6299941837788,-0.12,-4.17,-5,0.84
2022-05-25 10:47:05.720,29.7420032322407,-0.21,-4.87,-4,0.38
2022-05-25 10:47:05.836,29.8579953610897,0.07,-2.22,-4,-7.48
2022-05-25 10:47:05.949,29.9710001796484,0.92,3.42,-4,-33.72
2022-05-25 10:47:06.064,30.0859965384007,1.27,2.5,-2,-22.35
2022-05-25 10:47:06.180,30.2019987255335,0.84,-2.43,0,10.5
2022-05-25 10:47:06.294,30.315999314189,0.37,-4.42,1,21.43
2022-05-25 10:47:06.409,30.4309956729412,0.05,-4.93,0,24.13
